Vorticity
21 17 11 11 10 8 11 16 9 8 10 8 9 12 8 5 5 17 18 -5 -12 79 29 4 5 2 5 5 5 5 7 5 5 5 5 6 6 5 4 3 3 3 4
16 11 20 5 9 5 8 12 12 12 10 9 7 5 15 9 13 11 13 32 2 -12 10 9 5 1 6 5 5 4 8 5 5 4 4 7 6 3 3 3 3 3 4
9 16 22 25 2 10 1 6 12 10 12 9 7 6 10 9 17 14 10 19 14 -22 39 11 7 -0 5 6 3 4 8 6 5 7 4 5 4 6 3 3 3 4 2
12 22 25 21 30 4 10 7 7 7 10 9 14 5 10 10 15 20 8 12 21 7 24 13 7 0 2 6 2 5 9 6 5 7 5 6 7 4 4 3 2 2 1
18 23 27 18 15 19 10 8 6 11 18 11 6 7 9 12 16 14 19 25 24 35 19 4 11 4 3 3 7 2 8 7 6 7 7 8 6 5 2 4 5 4 2
14 10 11 15 32 21 10 6 11 10 9 10 10 7 12 13 17 11 11 8 32 36 1 11 27 3 5 3 0 5 8 9 6 6 7 7 9 4 4 4 3 4 3
27 32 47 50 30 20 9 11 7 9 10 7 9 13 12 19 9 1 6 17 35 19 -21 -14 18 14 5 3 -4 12 8 10 6 5 7 6 8 4 3 3 4 3 2
2 16 32 25 13 9 15 10 13 16 4 7 16 11 19 28 6 10 5 29 43 20 13 14 58 12 7 5 5 11 11 12 6 5 6 6 6 3 2 2 2 3 3
8 18 20 23 21 16 8 10 5 2 12 18 9 21 7 17 20 10 17 13 30 12 18 36 35 4 4 2 4 8 11 12 6 6 6 6 6 4 2 2 2 2 2
8 8 10 13 15 15 13 12 10 18 13 14 -5 15 30 -0 12 20 6 30 32 12 -42 32 9 9 5 2 10 1 11 12 10 6 7 5 5 5 3 2 2 3 3
8 7 9 10 12 8 9 14 16 3 17 9 48 25 33 1 4 38 11 5 15 30 36 22 5 7 8 -1 9 -2 7 11 10 8 8 6 6 4 4 4 3 2 2
18 12 15 10 8 7 10 23 22 24 11 33 43 24 15 3 -14 3 13 4 6 65 17 4 6 1 4 4 8 2 -0 9 12 9 6 7 6 5 4 5 4 4 4
41 23 -1 15 17 25 30 5 17 49 21 25 20 17 18 6 -24 -18 17 -51 44 3 13 14 9 6 3 5 0 19 -7 20 0 11 5 5 7 6 5 5 5 5 8
14 34 29 42 4 2 16 23 11 16 6 15 26 3 7 28 6 7 35 17 40 14 6 8 11 10 8 15 20 6 18 13 17 11 7 6 8 6 6 5 8 7 3
31 29 -11 19 18 -8 34 15 17 13 34 7 20 5 11 49 20 32 -12 -18 10 -9 15 5 10 13 12 9 14 7 6 -2 10 1 8 4 7 8 6 5 5 3 3
-9 1 23 22 53 45 31 17 -8 5 9 7 18 21 15 9 46 32 22 39 29 15 -5 4 10 16 11 11 2 9 9 17 14 10 10 10 6 5 4 8 1 13 -1
4 9 12 7 1 21 1 18 1 14 17 1 17 10 22 17 7 -8 -3 35 -1 24 -11 7 -13 10 -1 -1 5 4 11 8 3 9 7 9 11 14 12 4 15 -23 31
6 1 1 1 -1 9 -7 8 4 -2 6 8 14 -5 17 22 30 36 11 16 39 30 5 20 16 18 47 23 -4 9 8 -6 -11 6 19 27 20 6 -5 17 25 -28 25
5 2 4 5 4 3 -1 5 4 1 2 4 6 8 7 11 6 2 -4 15 6 15 14 28 24 30 35 7 8 14 44 21 -6 29 34 9 31 -2 37 1 -9 14 58
7 7 5 5 8 5 3 6 6 5 5 3 1 2 3 5 6 9 11 7 5 14 18 -5 13 2 5 6 29 17 2 -13 65 4 9 8 22 28 19 40 63 -12 -2
6 4 5 6 6 6 7 8 7 10 9 8 8 7 5 4 3 3 3 6 6 5 2 4 9 10 15 6 8 10 19 13 3 -5 18 22 15 -10 7 26 10 8 -10
4 5 5 6 6 6 4 5 4 5 3 3 4 4 4 5 7 7 7 5 3 2 3 3 4 2 -1 -4 -7 -0 9 15 9 8 -3 -1 6 9 9 4 -15 14 -3
7 8 8 9 9 9 10 9 9 9 9 8 8 7 8 8 7 6 5 5 7 8 9 9 5 2 4 4 5 7 10 11 9 14 -2 -4 1 4 4 25 5 -12 27
10 9 9 8 8 7 7 6 6 5 7 6 8 7 7 6 5 5 5 4 5 5 6 6 7 8 11 10 8 1 1 1 2 5 7 10 4 9 4 9 22 35 7
6 6 7 7 8 8 8 10 11 12 10 9 9 8 8 8 8 9 9 8 9 9 8 5 4 7 9 10 9 14 20 12 7 10 11 5 5 7 3 10 -1 -1 8
7 8 9 8 10 11 11 9 8 8 9 9 9 10 12 12 12 14 16 15 15 13 13 13 13 9 12 11 15 13 5 13 16 20 22 3 19 4 12 26 27 32 18
Height
3005 3008 3012 3016 3019 3024 3027 3031 3037 3043 3046 3049 3052 3058 3062 3069 3074 3079 3087 3095 3099 3090 3099 3113 3121 3130 3134 3139 3144 3147 3151 3155 3158 3161 3164 3166 3168 3170 3173 3174 3177 3178 3179
2991 2993 2997 3003 3007 3012 3016 3021 3025 3031 3035 3039 3044 3049 3055 3059 3064 3070 3075 3083 3090 3095 3101 3104 3113 3121 3127 3132 3136 3141 3145 3150 3153 3156 3160 3162 3165 3167 3170 3172 3174 3176 3176
2977 2978 2981 2985 2993 2998 3005 3011 3016 3021 3025 3031 3035 3038 3042 3047 3051 3056 3062 3070 3077 3087 3093 3098 3105 3112 3119 3125 3130 3136 3139 3144 3148 3152 3155 3156 3160 3165 3167 3169 3171 3172 3173
2965 2963 2964 2970 2976 2986 2995 3001 3006 3011 3017 3022 3025 3029 3033 3038 3043 3047 3054 3061 3068 3079 3086 3090 3096 3104 3111 3118 3125 3131 3136 3140 3143 3147 3149 3154 3159 3161 3165 3166 3168 3169 3170
2955 2954 2953 2957 2964 2974 2983 2991 2998 3004 3009 3013 3017 3021 3024 3029 3035 3038 3044 3051 3060 3068 3077 3083 3090 3098 3103 3112 3118 3125 3129 3134 3139 3143 3147 3151 3154 3157 3161 3163 3165 3165 3166
2950 2949 2949 2951 2954 2964 2975 2982 2989 2995 3000 3004 3008 3012 3016 3021 3025 3030 3034 3040 3046 3057 3064 3070 3079 3091 3097 3105 3111 3119 3124 3129 3134 3139 3143 3148 3151 3155 3158 3160 3161 3161 3161
2948 2943 2938 2940 2949 2959 2969 2977 2982 2987 2991 2996 3000 3005 3008 3013 3018 3023 3026 3031 3037 3047 3053 3062 3069 3080 3089 3099 3106 3112 3118 3123 3128 3134 3138 3143 3147 3151 3153 3155 3156 3156 3157
2945 2941 2940 2943 2949 2957 2964 2970 2976 2981 2986 2989 2993 2997 3002 3006 3011 3014 3019 3023 3027 3037 3049 3052 3061 3073 3082 3091 3100 3106 3112 3117 3123 3128 3133 3137 3141 3144 3147 3149 3150 3151 3152
2944 2944 2946 2949 2953 2958 2963 2968 2972 2976 2979 2983 2986 2991 2996 3000 3003 3008 3012 3016 3020 3030 3035 3043 3054 3066 3075 3085 3093 3099 3104 3111 3117 3122 3127 3131 3135 3138 3140 3142 3144 3145 3145
2945 2946 2947 2950 2952 2956 2960 2964 2967 2971 2974 2977 2980 2983 2988 2991 2996 3000 3005 3008 3015 3022 3031 3041 3051 3063 3071 3079 3087 3092 3098 3105 3110 3115 3120 3124 3128 3131 3133 3135 3137 3138 3138
2944 2945 2947 2949 2950 2953 2956 2958 2961 2966 2969 2972 2975 2979 2983 2984 2988 2990 2999 3004 3013 3024 3030 3037 3048 3058 3065 3074 3080 3086 3093 3098 3103 3108 3113 3117 3121 3124 3126 3128 3130 3131 3131
2943 2945 2946 2948 2949 2950 2949 2952 2956 2961 2966 2969 2970 2975 2980 2986 2987 2992 2994 3005 3012 3017 3024 3035 3045 3051 3060 3069 3074 3080 3087 3091 3096 3101 3105 3110 3114 3116 3118 3120 3122 3123 3123
2940 2942 2944 2944 2944 2945 2946 2949 2954 2956 2964 2967 2970 2976 2980 2985 2989 2992 2995 3002 3006 3015 3023 3032 3039 3046 3055 3064 3068 3074 3080 3083 3088 3093 3097 3102 3105 3107 3109 3112 3113 3114 3114
2944 2943 2939 2938 2940 2941 2946 2949 2952 2959 2965 2969 2971 2975 2979 2981 2986 2991 2997 3001 3008 3014 3022 3030 3037 3043 3050 3056 3061 3066 3071 3074 3080 3084 3089 3093 3095 3098 3101 3103 3104 3105 3105
2949 2951 2949 2949 2949 2951 2953 2956 2959 2965 2969 2972 2975 2977 2978 2978 2985 2989 2995 3000 3009 3016 3022 3029 3035 3040 3044 3049 3053 3058 3062 3067 3071 3076 3080 3084 3087 3089 3091 3092 3094 3095 3095
2962 2961 2962 2960 2961 2962 2965 2965 2967 2970 2974 2976 2977 2977 2979 2980 2982 2985 2990 2995 3004 3014 3021 3026 3032 3036 3041 3047 3050 3055 3058 3061 3065 3068 3072 3075 3077 3078 3080 3083 3084 3085 3085
2976 2973 2971 2973 2974 2972 2974 2973 2975 2979 2981 2981 2980 2981 2982 2984 2986 2990 2995 3000 3006 3013 3017 3023 3029 3034 3037 3041 3045 3050 3052 3054 3057 3060 3062 3064 3066 3069 3070 3071 3072 3071 3072
2987 2986 2985 2984 2983 2984 2985 2986 2987 2986 2987 2989 2989 2989 2990 2992 2994 2997 3000 3003 3006 3010 3017 3020 3025 3030 3033 3036 3042 3044 3046 3046 3048 3050 3052 3053 3055 3055 3057 3057 3059 3058 3061
2997 2994 2994 2994 2995 2995 2995 2996 2996 2995 2996 2996 2995 2995 2996 2998 3001 3004 3007 3009 3012 3014 3017 3020 3021 3024 3028 3031 3033 3034 3034 3034 3036 3037 3039 3039 3042 3043 3044 3048 3048 3048 3049
3003 3000 2999 3000 3001 3000 3000 3000 3000 3000 2999 2999 3002 3004 3005 3005 3007 3008 3009 3009 3011 3013 3016 3018 3019 3021 3023 3024 3025 3026 3025 3025 3025 3029 3030 3029 3032 3031 3033 3034 3034 3037 3040
3008 3007 3004 3002 3000 2999 3000 3000 3000 3001 3001 3001 3004 3006 3006 3007 3008 3008 3009 3010 3012 3013 3014 3016 3018 3019 3019 3018 3019 3020 3020 3020 3018 3019 3020 3019 3018 3019 3025 3025 3025 3029 3030
3009 3008 3007 3006 3005 3003 3003 3003 3003 3002 3002 3002 3003 3003 3003 3003 3004 3005 3007 3008 3009 3011 3012 3013 3012 3012 3011 3012 3012 3014 3015 3014 3013 3012 3012 3012 3013 3014 3015 3017 3017 3018 3018
3011 3010 3009 3007 3007 3006 3006 3005 3004 3003 3003 3002 3002 3001 3002 3001 3002 3002 3002 3003 3004 3005 3005 3006 3006 3004 3002 3002 3001 3001 3000 3001 3001 3001 3001 3002 3002 3003 3003 3004 3004 3005 3007
3011 3010 3008 3008 3007 3006 3004 3002 3002 3001 3000 2999 2999 2999 2999 2997 2996 2994 2994 2994 2994 2993 2993 2993 2993 2992 2991 2989 2987 2985 2988 2989 2988 2988 2987 2989 2990 2991 2991 2992 2993 2994 2994
3011 3010 3009 3008 3007 3006 3004 3003 3001 3001 3000 3000 2999 2997 2993 2993 2992 2990 2987 2987 2984 2980 2979 2978 2977 2974 2975 2974 2971 2970 2972 2972 2973 2971 2972 2974 2974 2975 2978 2980 2979 2980 2983
3012 3011 3009 3007 3006 3005 3004 3001 2999 2998 2997 2994 2993 2989 2988 2986 2983 2982 2982 2979 2975 2971 2967 2964 2960 2959 2956 2954 2955 2956 2957 2957 2958 2955 2957 2959 2959 2959 2963 2967 2965 2966 2970